Regional Weather Roundup
Issued by NWS Grand Forks, ND

Home | Current Version | Previous Version | Text Only | Print | Product List | Glossary Off
Versions: 1 2 3 4 5 6 7 8 9 10 11 12 13 14 15 16 17 18 19 20 21 22 23 24 25 26 27 28 29 30 31 32 33 34 35 36 37 38 39 40 41 42 43 44 45 46 47 48 49 50

000
ASUS43 KFGF 250131
RWRFGF
PRAIRIE TO PINES  WEATHER ROUNDUP
NATIONAL WEATHER SERVICE EASTERN NORTH DAKOTA/GRAND FORKS ND
800 PM CDT TUE MAY 24 2016

 **SATELLITE DATA USED TO AUGMENT SKY COVER AT AUTOMATED STATIONS**
 *****  WEATHER ACROSS EASTERN NORTH DAKOTA  *****

CITY           SKY/WX    TMP DP  RH WIND       PRES   REMARKS
GRAND FORKS    CLEAR     76  50  40 E6        29.85S
GRAND FRKS AFB SUNNY     76  50  40 E5        29.86S
GRAND FRKS NWS   N/A     72 N/A N/A NE2         N/A
DEVILS LAKE    SUNNY     74  46  36 SE3       29.87S
FARGO          CLEAR     81  41  24 N9        29.84S
WAHPETON ARPT  CLEAR     79  43  27 NE8       29.83S
$$

 ***** WEATHER ACROSS CENTRAL AND WESTERN NORTH DAKOTA  *****

CITY           SKY/WX    TMP DP  RH WIND       PRES   REMARKS
BISMARCK       MOSUNNY   72  49  44 SE6       29.83F
MINOT          SUNNY     75  41  29 W6        29.84F
JAMESTOWN      NOT AVBL
MINOT AFB      SUNNY     73  40  30 W8        29.84S
GARRISON         N/A     73  43  33 E3        29.85S
WILLISTON      SUNNY     70  37  29 W12       29.85S
DICKINSON      PTSUNNY   63  47  55 N7        29.84R
HETTINGER      CLOUDY    63  47  55 N3        29.84S
$$

 *****  OTHER AIRPORT OBSERVATIONS IN OUR AREA  *****

CITY           SKY/WX    TMP DP  RH WIND       PRES   REMARKS
WALHALLA       FAIR      72  52  49 E3        29.86S
GRAFTON AIRPOR FAIR      72  57  60 SE5       29.88R
VALLEY CITY AR FAIR      73  52  46 CALM      29.88F
CANDO          FAIR      72  41  33 NW7       29.89R
CAVALIER APRT  FAIR      73  55  53 E7        29.86S
GWINNER        FAIR      75  48  38 N12       29.85S
SHEYENNE NWR     N/A     79  47  32 NE8       29.95S
ROLLA          FAIR      70  39  32 NW8       29.89S
 ***** THE ABOVE OBSERVATIONS ARE NON NWS ARE NOT QUALITY
       CONTROLLED AND MAY MIS-REPORT RAIN FOR SNOW...
$$

  *****  WEATHER ACROSS NORTHERN MINNESOTA  *****

CITY           SKY/WX    TMP DP  RH WIND       PRES   REMARKS
FLAG ISLAND    CLEAR     70  48  46 CALM      29.91R
WARROAD        CLEAR     66  57  72 NE9       29.91S
ROSEAU         CLEAR     72  54  53 NE8       29.90R
HALLOCK        SUNNY     73  46  38 E7        29.86S
THF RVR FALLS  CLEAR     73  46  38 N6        29.90R
BAUDETTE       CLEAR     72  48  42 N7        29.90R
WASKISH        CLEAR     72  52  49 MISG      29.90R
CROOKSTON      CLEAR     75  48  38 NE3       29.88S
STEPHEN NDAWN    N/A     75  45  33 S1          N/A
GREENBUSH NDAW   N/A     70  54  56 N3          N/A
$$
  *****  WEATHER ACROSS CENTRAL AND WEST MINNESOTA  *****

CITY           SKY/WX    TMP DP  RH WIND       PRES   REMARKS
FOSSTON        CLEAR     73  52  46 N3        29.89S
BEMIDJI        CLEAR     73  42  32 N3        29.89S
PARK RAPIDS    CLEAR     79  45  29 NE8       29.87S
ELBOW LAKE     FAIR      76  56  50 SE13      29.84F
WADENA         PTCLDY    68  55  64 SE9       29.88R
DETROIT LAKES  CLEAR     73  48  40 NE6       29.89S
MOORHEAD       CLEAR     79  43  27 NE9       29.85S
FERGUS FALLS   CLEAR     77  52  41 E6        29.81R
MORRIS MN      LGT RAIN  79  52  38 SE10G20   29.82S
STAPLES        CLEAR     64  55  72 SE6       29.90S
$$
  *****  WEATHER ELSEWHERE ACROSS MINNESOTA  *****

CITY           SKY/WX    TMP DP  RH WIND       PRES   REMARKS
DULUTH         FOG       57  55  93 E14       29.95R VSB 1/2
INTRNTL FALLS  CLEAR     64  51  62 E12G18    29.93R
ELY            HAZE      63  54  72 SE14      29.95R VSB 1/2
CLOQUET        CLOUDY    55  54  94 E8        29.95R FOG
WHEATON        CLEAR     81  52  36 NW5       29.83F
BRAINERD       LGT RAIN  62  56  80 E5        29.93F
HIBBING        CLEAR     74  44  34 W3        29.90R
ALEXANDRIA     CLEAR     71  54  54 E10       29.89S
SAINT CLOUD    CLEAR     73  57  57 N8        29.89R
MINNEAPOLIS    MOCLDY    80  49  33 NE8       29.87F
$$

  *****  WEATHER ACROSS SOUTH DAKOTA  *****

CITY           SKY/WX    TMP DP  RH WIND       PRES   REMARKS
SIOUX FALLS    PTCLDY    75  53  46 E7        29.83F
BROOKINGS      CLEAR     83  41  22 CALM      29.84F
WATERTOWN      CLEAR     82  43  25 CALM      29.84F
HURON          CLEAR     78  53  41 E7        29.80F
SISSETON         N/A     83  43  24 CALM      29.81F
ABERDEEN       CLEAR     81  46  29 N6        29.81F
MITCHELL       CLEAR     78  58  49 E6        29.81F
PIERRE         PTSUNNY   70  53  54 E7        29.77F
MOBRIDGE       PTSUNNY   75  56  51 E5        29.79F
RAPID CITY     RAIN      55  52  89 E13       29.90F
$$

  *****  SOME WEATHER IN NEARBY STATES *****

CITY           SKY/WX    TMP DP  RH WIND       PRES   REMARKS
GLASGOW MT     MOSUNNY   62  40  44 W7        29.86S
GREAT FALLS MT CLOUDY    58  36  43 NW3       29.87F
CHEYENNE WY    PTSUNNY   56  43  61 SE16      29.87F
SCOTTSBLUFF NE LGT RAIN  60  48  64 SE25G46   29.78F
OMAHA NE       PTCLDY    79  60  52 S10       29.85F
DES MOINES IA  PTCLDY    80  59  48 S5        29.89S
DAVENPORT IA   MOCLDY    81  57  43 SW6       29.91S
CHICAGO IL     CLOUDY    82  52  35 S9        29.92S
EAU CLAIRE WI  CLEAR     76  51  41 NW3       29.89S
LA CROSSE WI   CLEAR     80  60  50 CALM      29.89S
$$

  *****  SOME NATIONAL WEATHER *****

CITY           SKY/WX    TMP DP  RH WIND       PRES   REMARKS
LA GUARDIA NY  MOCLDY    67  57  70 NE6       29.95R
RALEIGH NC     PTCLDY    71  53  52 SW3       30.10R
ATLANTA GA     CLEAR     77  51  40 W3        30.13R
NEW ORLEANS LA PTCLDY    81  71  71 SE10      30.07R
OKLAHOMA CITY  CLOUDY    78  70  76 SE20G26   29.87S
ALBUQUERQUE NM MOSUNNY   81  10   7 SW15G29   29.91S
SALT LAKE CITY PTSUNNY   62  38  40 E8        29.88F
LOS ANGELES CA MOSUNNY   63  54  72 W16       30.02R
BOISE ID       FAIR      71  30  21 NW17      29.81R
SEATTLE WA     CLOUDY    65  48  54 CALM      30.00F
$$

*** WEATHER ACROSS MANITOBA...SASKATCHEWAN AND ONTARIO ***
                ***ONTARIO***

CITY           SKY/WX    TMP DP  RH WIND       PRES   REMARKS
GERALDTON      MOCLDY    52  41  66 E7        30.06R
THUNDER BAY    MOCLDY    59  54  82 E5        30.01R
SIOUX LOOKOUT  PTCLDY    55  54  94 SE5       29.98
TORONTO        MOCLDY    75  37  25 W10       29.95R
BIG TROUT LK   CLOUDY    48  37  66 E8        30.08S
PICKLE LAKE    CLOUDY    54  43  66 S7        30.04R
DRYDEN         CLEAR     57  54  88 E5        29.95F
KENORA         PTCLDY    64  48  55 E8        29.94R
$$
                *** MANITOBA***

CITY           SKY/WX    TMP DP  RH WIND       PRES   REMARKS
BRANDON        PTSUNNY   70  39  32 W8        29.87R
DAUPHIN        PTSUNNY   61  54  77 E9        29.90F
ISLAND LAKE    PTSUNNY   54  43  66 E7        30.02R
PILOT MOUND      N/A     72  41  33 W5          N/A
THE PAS        PTSUNNY   54  43  66 E3        29.95F
THOMPSON       MOSUNNY   54  36  50 VRB2      30.01S
WINNIPEG       MOSUNNY   66  52  59 NE10      29.89R
LYNN LAKE      MOSUNNY   57  39  51 S8        29.95S
CHURCHILL      CLOUDY    36  25  64 SE15      30.14S
GILLAM         PTSUNNY   46  28  49 E5        30.07S
$$
                ***SASKATCHEWAN***

CITY           SKY/WX    TMP DP  RH WIND       PRES   REMARKS
ESTEVAN        MOSUNNY   68  37  32 SW13      29.85
KINDERSLEY     PTSUNNY   54  46  76 N12       29.87R
LLOYDMINSTER   MOSUNNY   59  46  63 SE12      29.87S
PRINCE ALBERT  CLOUDY    52  46  82 E8        29.91S
REGINA         PTSUNNY   63  43  48 SW10G17   29.85R
YORKTON        MOSUNNY   64  46  52 E5        29.84S
N. BATTLEFORD  CLOUDY    54  46  76 E7        29.91R
LA RONGE       MOSUNNY   59  45  58 SE7       29.92S
SASKATOON      PTSUNNY   50  50 100 N9        29.87R
SWIFT CURRENT  PTSUNNY   54  46  76 W10       29.83R
$$
NOTE: THESE ARE AUTOMATED STATIONS WITH LIMITED QUALITY CONTROL
      "FAIR" INDICATES FEW OR NO CLOUDS BELOW 12,000 FEET WITH NO
      SIGNIFICANT WEATHER AND/OR OBSTRUCTIONS TO VISIBILITY.
      SKY/WX - SKY CONDITION AND SIGNIFICANT WEATHER.
      TMP - AIR TEMPERATURE.    DP   - DEWPOINT TEMPERATURE.
      RH  - RELATIVE HUMIDITY.  PRES - PRESSURE.
      HX  - HEAT INDEX.         WCI  - WIND CHILL INDEX.
$



USA.gov is the U.S. government's official web portal to all federal, state and local government web resources and services.